Simultaneous Nadir Overpasses (SNOs) Predictions

Prediction of SNOs between FY3D and AQUA Satellite Orbit:

Table of predicted SNOs for the next 14.0 days since TLE Epoch: 5/20/2023
Index Date (FY3D) Time (FY3D) Lat,Lon (FY3D) SZA (FY3D ) Date (AQUA) Time (AQUA) Lat,Lon (AQUA) SZA (AQUA ) Distance(km) Time Diff (sec)
1 05/22/2023 04:05:36 -78.42, -79.30 121.42 05/22/2023 04:05:47 -78.42, -79.28 121.42 0.56 11
2 05/22/2023 04:56:08 77.88, 91.01 57.89 05/22/2023 04:55:00 77.89, 90.93 57.91 2.15 68
3 05/24/2023 17:51:12 78.46,-105.90 58.15 05/24/2023 17:51:34 78.46,-105.92 58.15 0.36 22
4 05/24/2023 18:41:49 -78.12, 63.36 122.30 05/24/2023 18:40:50 -78.11, 63.47 122.30 2.65 59
5 05/27/2023 07:36:48 -78.54,-132.73 122.20 05/27/2023 07:37:19 -78.54,-132.73 122.20 0.28 31
6 05/27/2023 08:27:20 78.01, 37.60 57.11 05/27/2023 08:26:32 78.02, 37.50 57.14 2.45 48
7 05/29/2023 21:22:22 78.52,-158.97 57.37 05/29/2023 21:23:03 78.53,-159.09 57.38 2.98 41
8 05/29/2023 22:12:58 -78.14, 10.56 123.14 05/29/2023 22:12:18 -78.14, 10.54 123.13 0.60 40
9 06/01/2023 11:08:00 -78.63, 173.94 122.84 06/01/2023 11:08:48 -78.63, 173.97 122.86 0.74 48



Historial Predications of SNOs between FY3D and AQUA
